Theta_e
331 334 335 335 333 333 333 335 336 334 334 335 335 334 333 334 334 334 334 321 327 335 336 336 336 335 333 332 331 330 329 329 328 328 327 326 325 325 325 326 326 326 326
325 331 336 334 336 334 332 332 331 333 333 333 333 333 333 333 334 334 334 331 324 330 335 336 336 336 335 333 332 330 329 329 329 329 329 328 328 327 326 326 327 327 328
318 329 332 336 333 336 330 329 331 331 331 333 331 332 332 333 333 332 333 334 330 322 328 331 334 335 335 334 333 332 331 331 331 331 330 330 330 329 327 328 329 326 325
316 320 330 332 334 334 331 327 328 327 328 327 328 329 330 330 331 332 333 333 333 330 327 330 332 333 333 333 333 332 332 330 328 326 325 324 324 323 322 322 322 321 321
314 315 326 331 334 330 329 326 327 327 325 325 325 324 325 325 326 327 329 324 322 321 321 318 320 325 331 331 331 332 329 327 324 321 320 319 319 318 318 318 318 318 318
315 314 321 330 331 329 329 327 325 326 324 324 321 310 307 305 306 307 309 308 307 306 306 306 311 314 322 327 326 325 323 320 317 315 315 314 314 313 313 313 313 313 313
315 318 316 324 330 326 326 327 326 325 323 324 310 304 301 299 297 300 299 299 298 297 298 296 297 298 304 315 318 318 317 316 313 312 311 310 310 310 309 309 310 310 310
319 321 316 320 327 327 326 326 325 322 322 322 316 309 301 300 295 293 295 293 290 292 291 290 291 292 292 298 302 307 308 309 308 308 307 305 305 304 304 305 305 306 306
312 315 317 321 324 325 324 325 325 323 318 320 320 315 305 304 293 292 289 289 288 288 287 286 286 286 286 288 291 294 298 298 299 300 300 300 299 299 299 300 300 301 302
303 305 308 317 326 326 324 325 325 324 323 317 319 315 311 302 296 288 287 286 286 286 285 285 285 284 284 284 287 289 291 292 292 294 294 294 294 295 296 297 298 299 299
297 296 299 304 323 321 320 323 322 322 321 320 317 308 307 304 300 294 286 283 283 283 283 282 283 283 282 282 282 284 287 289 289 289 289 290 291 292 293 295 296 297 298
292 291 293 295 297 299 299 296 296 295 295 295 294 296 303 303 299 294 289 286 281 279 280 280 281 281 281 280 280 279 283 285 286 286 286 287 288 289 291 293 294 295 296
287 287 288 289 290 292 294 291 289 288 288 286 286 285 287 288 294 297 292 286 283 279 278 278 279 279 280 279 278 276 279 282 283 284 284 285 286 287 289 290 292 293 293
285 285 284 285 285 287 287 286 285 284 283 282 281 281 280 280 284 287 294 288 283 283 281 276 277 278 277 278 277 276 275 278 280 281 282 283 285 286 287 288 289 290 290
283 282 282 281 282 282 283 284 282 280 280 280 279 278 278 278 279 281 283 286 288 283 278 277 275 276 276 276 276 275 275 276 277 279 280 281 283 284 285 286 287 288 289
281 281 280 280 280 280 279 280 280 278 277 277 277 277 276 277 277 277 278 279 282 285 278 278 275 276 276 275 275 275 275 275 275 277 278 280 281 283 283 284 285 286 287
280 279 279 279 278 278 278 278 277 277 276 276 276 275 275 276 275 276 276 277 277 281 276 275 277 276 276 274 274 274 274 274 275 275 277 279 281 281 282 282 283 284 285
278 278 278 277 277 277 277 276 275 275 275 274 274 274 274 276 275 276 276 275 275 277 277 274 275 274 274 273 273 272 273 273 273 274 277 278 279 279 280 281 281 282 282
276 276 277 276 276 275 276 276 275 275 274 274 274 274 274 274 273 275 275 274 274 274 275 274 272 273 273 273 272 272 272 273 273 274 275 276 277 278 278 279 280 280 280
275 275 275 275 275 275 275 275 276 275 275 276 276 276 275 274 273 274 274 274 274 273 273 272 271 271 272 272 272 270 269 272 271 273 274 274 275 275 276 277 278 278 278
277 277 276 275 275 275 275 274 275 274 274 274 275 276 277 277 277 275 274 273 273 272 272 271 270 271 270 269 268 269 268 270 271 272 272 272 272 272 272 274 274 275 276
276 277 276 276 276 277 278 277 276 275 275 274 273 274 274 274 275 275 275 275 274 272 271 271 270 269 269 268 269 268 268 268 267 273 270 270 271 270 271 272 274 275 277
276 276 276 276 276 277 277 276 275 274 273 273 273 274 273 274 274 272 273 272 272 273 272 271 269 269 268 269 269 268 269 268 267 270 268 266 270 269 272 273 275 276 277
276 276 276 276 276 276 276 275 273 272 271 272 272 273 273 274 275 273 272 271 271 270 271 271 271 271 271 272 271 270 269 268 268 268 269 265 270 269 271 272 274 275 276
275 275 276 276 275 275 276 275 273 272 271 270 271 272 273 274 275 276 273 271 270 270 272 273 274 274 273 273 272 269 266 265 264 266 268 267 268 268 270 271 272 274 275
275 275 275 275 277 276 277 275 274 273 271 271 271 271 271 273 275 275 273 270 268 270 270 269 268 267 268 267 268 267 266 263 263 264 270 266 266 267 265 270 271 271 270
Wind_Speed
4 4 3 7 6 5 6 7 8 8 11 12 12 10 12 12 10 7 6 11 10 10 14 16 17 15 14 14 13 12 11 11 11 11 11 11 10 11 10 10 10 10 11
4 4 5 6 9 8 9 6 8 8 9 9 12 10 10 9 12 11 8 9 10 10 9 15 15 16 15 13 13 12 11 12 12 13 13 13 13 13 11 12 11 11 9
7 7 6 8 8 9 13 12 8 8 8 8 12 12 11 12 9 10 9 8 9 5 1 6 12 16 16 15 15 15 11 5 11 13 13 7 8 11 9 8 13 4 6
9 8 6 7 8 10 10 10 8 7 7 5 5 6 7 9 11 11 10 7 6 4 4 3 7 8 11 7 10 12 13 15 17 14 14 14 13 12 11 9 8 6 5
8 10 8 5 9 8 10 10 9 8 9 8 6 3 2 2 2 3 5 7 8 7 6 15 15 6 9 11 10 17 19 18 18 16 15 14 12 12 11 10 9 10 10
9 10 9 8 7 7 9 9 12 11 9 8 6 7 6 7 8 9 9 8 9 9 8 10 9 11 18 20 21 20 20 19 17 15 13 12 11 11 10 9 9 9 9
10 11 8 9 8 7 10 13 10 10 8 9 7 5 7 10 12 8 7 7 9 9 10 10 7 7 9 21 19 18 18 17 16 15 13 12 12 11 12 11 11 11 11
8 9 9 9 9 9 13 9 10 5 5 11 6 6 3 4 8 9 7 7 9 8 10 10 11 11 10 9 15 18 17 16 14 13 13 12 11 10 10 10 10 11 12
8 8 9 11 11 8 8 9 10 11 7 10 12 5 7 5 6 5 8 7 8 7 7 7 10 9 11 9 11 14 19 15 14 12 13 12 11 10 9 9 10 11 12
7 9 9 13 12 10 10 9 10 11 9 10 7 1 5 6 6 5 3 4 9 6 7 6 6 7 10 7 14 17 16 11 13 12 11 11 11 10 10 10 11 12 13
8 9 9 11 11 5 6 10 11 12 8 10 8 3 4 4 7 6 6 4 4 4 7 5 7 3 9 6 7 11 9 14 10 10 10 10 10 9 10 11 12 14 15
6 10 9 8 7 5 5 6 7 7 6 6 3 3 3 3 6 6 6 5 7 3 3 5 6 2 6 5 8 8 8 11 9 8 9 10 10 11 12 14 15 16 17
5 8 9 9 8 7 7 9 10 10 8 8 6 5 6 6 3 2 8 6 5 3 3 3 2 2 5 4 3 5 9 10 9 8 10 11 12 13 14 16 18 18 18
6 8 9 10 12 11 12 9 10 10 10 10 12 11 9 8 6 3 5 11 5 3 3 4 1 2 3 3 4 7 5 9 9 8 10 12 13 14 16 18 18 19 19
7 9 11 12 13 14 11 9 11 14 10 12 11 13 11 8 7 7 6 3 4 5 2 3 3 3 3 2 5 4 5 9 9 10 13 14 15 16 18 18 19 19 21
9 11 13 13 15 16 14 13 12 15 13 10 10 14 12 9 9 8 7 6 6 4 5 2 2 3 3 1 3 5 6 9 9 11 13 15 17 18 18 18 20 21 22
11 11 14 13 15 15 17 14 12 18 17 14 13 13 15 12 9 9 8 7 6 4 7 3 3 3 2 3 4 5 6 7 7 12 14 18 19 18 18 20 21 22 24
13 13 13 16 15 16 15 17 14 16 15 14 13 12 13 9 11 10 9 10 9 8 4 6 3 1 3 3 5 7 5 6 8 11 16 20 18 18 20 22 23 25 26
14 14 14 16 18 16 14 11 17 15 15 14 11 12 12 12 11 10 11 8 7 7 6 4 3 0 1 3 6 6 6 7 7 14 18 18 18 20 22 24 25 26 27
14 15 15 16 16 14 12 13 14 15 14 12 13 11 12 13 13 10 8 8 5 5 5 4 2 1 1 2 6 7 8 7 10 10 13 14 19 20 24 26 26 27 29
14 13 14 14 13 13 9 12 12 13 14 12 13 13 14 12 18 12 6 7 4 4 3 3 3 3 3 6 7 6 9 11 11 10 7 9 12 12 12 18 21 26 28
12 13 13 14 13 10 19 19 14 13 12 12 10 9 9 10 15 16 14 12 10 5 4 3 3 4 6 6 7 8 9 10 7 2 11 13 12 12 11 10 21 26 30
12 13 13 11 13 13 18 18 17 11 10 10 9 8 8 6 7 7 10 10 10 11 8 5 5 6 8 8 10 12 12 11 11 11 14 13 9 12 10 11 25 27 31
10 10 10 11 11 10 16 17 15 10 10 9 9 8 7 7 6 5 7 6 5 5 4 3 5 7 9 10 12 12 13 14 11 11 12 12 8 11 11 11 26 26 27
10 9 9 10 10 10 13 11 9 8 8 8 6 7 7 6 9 9 5 6 6 6 5 9 13 16 19 20 15 9 8 9 10 8 9 10 8 15 11 11 9 17 21
9 8 9 8 10 9 12 10 7 4 5 4 5 5 6 7 10 10 7 6 7 8 8 7 9 12 12 12 14 9 7 8 9 9 3 8 10 10 10 7 7 10 11
Wind_Direction
294 321 170 174 168 164 208 200 204 197 204 199 192 199 200 204 205 204 202 190 223 236 204 196 197 197 196 196 198 200 204 204 209 213 214 222 229 234 237 240 245 251 253
283 255 225 192 182 178 178 194 202 189 199 199 200 195 202 200 205 198 206 192 212 234 249 221 210 204 197 197 199 203 211 220 218 217 216 220 225 230 236 243 249 253 346
274 263 271 203 200 187 181 187 193 192 199 199 199 200 202 211 211 206 213 215 196 103 260 262 234 226 207 198 197 199 200 123 98 89 76 75 244 246 67 55 247 334 359
271 269 250 235 199 197 183 188 180 178 192 196 196 199 200 208 206 213 213 218 227 161 76 148 150 169 149 158 155 135 141 114 101 96 88 78 74 65 62 58 40 38 19
263 259 250 231 209 196 191 190 204 194 182 192 180 173 217 286 270 302 235 77 79 82 76 58 56 66 136 149 141 119 110 101 96 88 82 79 70 63 51 42 33 23 14
250 249 252 239 214 198 196 196 202 191 178 165 137 101 74 63 41 44 54 54 61 58 46 48 59 48 74 97 99 98 101 97 92 87 81 74 68 60 48 32 22 8 1
253 244 239 245 207 204 196 199 187 186 181 157 115 67 66 67 61 39 47 51 57 49 42 40 47 51 52 71 81 89 90 88 86 81 76 71 58 47 33 16 5 356 345
274 256 238 235 220 213 210 202 192 172 190 173 169 126 172 75 64 51 24 68 54 58 56 43 45 54 51 57 70 68 65 75 73 76 70 57 45 30 20 5 357 343 336
295 291 289 250 224 210 201 193 193 176 183 185 176 152 148 180 128 52 51 57 62 60 66 48 59 45 58 45 47 49 58 41 54 54 50 44 32 16 11 359 347 334 326
335 331 304 276 238 212 208 204 193 188 190 186 185 220 58 131 151 136 64 52 59 50 54 51 62 53 63 45 52 45 46 40 41 48 40 25 18 6 357 346 337 326 316
8 349 336 323 244 231 209 204 196 203 195 192 187 163 113 91 102 138 140 125 89 49 62 60 63 18 77 60 47 39 35 49 36 40 29 12 3 354 344 334 325 316 310
13 6 0 10 28 66 85 82 92 75 88 89 74 70 154 148 146 138 113 137 114 58 76 47 63 37 68 70 60 40 33 41 24 27 9 357 350 342 335 325 316 312 310
18 15 23 28 40 38 64 82 79 70 64 78 76 76 65 61 44 74 120 134 132 166 97 77 87 62 59 72 43 32 29 20 10 8 354 347 343 337 326 320 317 312 309
42 38 44 40 50 50 53 74 79 71 65 73 68 66 65 40 36 26 140 141 122 118 155 134 60 95 143 108 29 13 8 3 354 346 339 339 332 325 319 313 309 303 300
61 56 62 57 58 57 55 58 76 71 64 71 68 66 68 48 41 37 41 73 108 136 128 156 158 181 137 137 33 355 346 342 330 335 336 330 322 314 311 306 301 298 299
66 69 69 67 65 63 55 47 80 73 69 64 67 64 65 54 48 46 42 44 41 93 127 149 164 154 150 76 50 338 332 315 317 324 322 316 309 307 304 300 299 301 300
65 70 75 74 73 70 67 63 57 78 78 69 64 66 63 62 52 44 46 41 48 49 107 105 96 138 172 340 340 336 315 315 313 311 308 304 304 302 299 301 300 300 298
64 68 74 78 74 77 78 76 76 66 66 72 69 73 69 65 65 59 55 47 46 33 85 127 127 127 248 302 316 315 301 298 297 300 300 305 301 296 296 300 301 299 299
66 67 70 76 70 69 70 72 77 83 75 72 62 66 76 73 63 62 62 61 50 51 54 105 124 154 270 274 312 309 307 306 307 306 306 303 299 302 299 297 295 293 291
72 67 65 65 73 78 75 73 73 77 76 70 77 65 70 67 68 68 70 68 70 84 80 96 97 73 313 313 313 322 324 325 315 307 301 287 289 288 288 288 290 289 290
70 75 77 76 79 78 76 85 79 77 76 71 62 61 63 75 78 73 74 61 60 74 68 58 50 5 336 340 340 323 311 316 305 286 284 289 301 291 280 282 280 280 284
66 68 70 72 76 79 82 82 83 85 83 81 86 86 84 65 65 67 66 60 44 36 50 33 11 342 325 331 323 312 307 309 320 335 309 291 291 279 272 269 268 277 283
80 75 70 79 81 84 92 89 83 84 86 80 82 83 74 69 65 55 47 40 32 24 19 353 326 321 309 309 307 302 300 304 293 301 299 287 288 274 272 277 283 281 282
73 77 84 86 88 83 81 82 86 89 89 81 73 69 72 58 68 42 23 15 3 353 333 282 274 281 282 292 297 296 298 294 290 285 277 274 299 292 286 284 280 276 274
86 85 90 94 94 88 86 89 91 88 87 79 70 54 37 35 24 13 347 340 335 323 319 301 288 293 298 300 296 297 289 303 299 295 289 276 301 305 286 276 265 263 271
93 88 82 72 75 87 80 77 78 89 87 83 63 46 29 4 357 349 339 324 319 312 302 290 290 296 294 291 292 277 275 281 298 305 341 311 311 316 304 280 314 305 291